Location: Erdweis
(48.5167°N, 15.3500°E)
Time: 09:50:04
(UTC+00:00)

X-37B - Pass Details

Date: 29 November 2020
Orbit: 384 x 390 km, 45.0° (Epoch: 02 January)

Event Time Altitude Azimuth Distance (km) Brightness Sun altitude
Rises 16:09:47 0° 211° (SSW) 2,254 5.4 -10.1°
Reaches altitude 10° 16:12:31 10° 185° (S) 1,406 3.8 -10.6°
Maximum altitude 16:14:18 14° 151° (SSE) 1,186 2.9 -10.8°
Drops below altitude 10° 16:16:05 10° 117° (ESE) 1,412 3.0 -11.1°
Enters shadow 16:16:09 10° 115° (ESE) 1,430 3.0 -11.1°
